Location: ???????
(55.2903°N, 39.1554°E)
Time: 23:01:36
(UTC+00:00)

Cosmos 2360 Rocket - Pass Details

Date: 14 April 2024
Orbit: 832 x 846 km, 71.0° (Epoch: 23 May)

Event Time Altitude Azimuth Distance (km) Brightness Sun altitude
Exits shadow 00:09:59 23° 250° (WSW) 1,715 3.3 -16.5°
Maximum altitude 00:13:16 48° 314° (NW) 1,088 2.8 -16.2°
Drops below altitude 10° 00:18:44 10° 29° (NNE) 2,467 5.8 -15.6°
Sets 00:21:18 0° 35° (NE) 3,407 7.1 -15.4°
